Home > Weather > Midland > Past weeks

Flag for USA Past Weather in Midland, Texas, USA — Yesterday and Last 2 Weeks

Now
79 °F

Sunny.


Feels Like: 81 °F
Forecast: 74 / 96 °F
Wind: 10 mph from South

Location: Midland - Midland Airpark

Current Time: Jul 30, 2016 at 10:03:36 AM

Latest Report: Jul 30, 2016 at 9:15 AM


Visibility: 10 mi

Pressure: 30.09 "Hg (27.32 "Hg at 847m altitude)

Humidity: 58%

Dew Point: 63 °F

Location of MidlandLocation

Past Weather in Midland — Graph

°F

Midland Temperature Yesterday

Maximum temperature yesterday: 95 °F (at 5:15 PM)
Minimum temperature yesterday: 73 °F (at 6:55 AM)
Average temperature yesterday: 83 °F

High & Low Weather Summary for the Past Weeks

 TemperatureHumidityPressure
High101 °F (Jul 24, 4:55 PM)87% (Jul 27, 4:55 AM)30.26 "Hg (Jul 27, 4:55 AM)
Low72 °F (Jul 16, 6:55 AM)17% (Jul 16, 2:55 PM)29.92 "Hg (Jul 23, 7:15 PM)
Average87 °F42%30.07 "Hg
* Reported Jul 15 8:15 AM — Jul 30 8:55 AM, Midland, Weather by CustomWeather, © 2016

Note: Actual official high and low records may vary slightly from our data, if they occured in-between our weather recording intervals... More about our weather records

Advertising

Midland Weather History for the Previous 24 Hours

Scroll right to see more
 ConditionsComfort  
Time TempWeatherWind HumidityBarometerVisibility
8:55 AM
Sat, Jul 30
78 °FSunny.8 mph61%30.09 "Hg10 mi
8:15 AM76 °FSunny.10 mph66%30.07 "Hg10 mi
7:55 AM75 °FClear.7 mph68%30.07 "Hg10 mi
7:35 AM74 °FClear.10 mph70%30.07 "Hg10 mi
7:15 AM74 °FClear.8 mph69%30.08 "Hg7 mi
6:55 AM75 °FClear.8 mph69%30.08 "Hg10 mi
6:35 AM75 °FClear.6 mph69%30.07 "Hg10 mi
6:15 AM75 °FClear.7 mph69%30.07 "Hg10 mi
5:55 AM75 °FClear.7 mph67%30.08 "Hg10 mi
5:35 AM76 °FClear.8 mph65%30.08 "Hg10 mi
5:15 AM76 °FClear.7 mph66%30.08 "Hg10 mi
4:55 AM77 °FClear.5 mph64%30.07 "Hg10 mi
4:35 AM77 °FClear.8 mph63%30.07 "Hg10 mi
4:15 AM78 °FClear.7 mph62%30.07 "Hg10 mi
3:55 AM78 °FClear.8 mph61%30.07 "Hg10 mi
3:15 AM79 °FClear.7 mph59%30.07 "Hg10 mi
2:55 AM79 °FClear.9 mph58%30.07 "Hg10 mi
2:35 AM80 °FClear.9 mph58%30.07 "Hg10 mi
2:15 AM80 °FClear.8 mph56%30.07 "Hg10 mi
1:55 AM81 °FClear.8 mph56%30.06 "Hg10 mi
1:35 AM81 °FClear.7 mph54%30.07 "Hg10 mi
1:15 AM82 °FClear.7 mph53%30.06 "Hg10 mi
12:55 AM82 °FClear.7 mph52%30.06 "Hg10 mi
12:35 AM82 °FClear.7 mph51%30.06 "Hg10 mi
12:15 AM83 °FClear.9 mph50%30.05 "Hg10 mi
11:55 PM
Fri, Jul 29
84 °FClear.9 mph48%30.05 "Hg10 mi
11:35 PM84 °FClear.13 mph46%30.05 "Hg10 mi
11:15 PM85 °FClear.12 mph45%30.04 "Hg10 mi
10:55 PM85 °FClear.12 mph42%30.03 "Hg10 mi
10:35 PM87 °FClear.13 mph37%30.03 "Hg10 mi
10:15 PM87 °FClear.9 mph34%30.03 "Hg10 mi
9:55 PM88 °FClear.7 mph34%30.02 "Hg10 mi
9:35 PM88 °FSunny.9 mph33%30.00 "Hg10 mi
9:15 PM89 °FSunny.12 mph32%30.00 "Hg10 mi
8:55 PM90 °FSunny.10 mph33%29.99 "Hg10 mi
8:35 PM90 °FSunny.13 mph33%29.98 "Hg10 mi
8:15 PM91 °FSunny.16 mph32%29.98 "Hg10 mi
7:55 PM92 °FSunny.16 mph31%29.97 "Hg10 mi
7:15 PM94 °FSunny.14 mph29%29.96 "Hg10 mi
6:55 PM95 °FSunny.15 mph29%29.96 "Hg10 mi
6:35 PM94 °FSunny.13 mph28%29.97 "Hg10 mi
6:15 PM95 °FSunny.10 mph28%29.97 "Hg10 mi
5:55 PM95 °FSunny.15 mph28%29.99 "Hg10 mi
5:35 PM95 °FSunny.10 mph28%30.00 "Hg10 mi
5:15 PM95 °FSunny.14 mph28%30.01 "Hg10 mi
4:55 PM93 °FScattered clouds.9 mph30%30.02 "Hg10 mi
4:35 PM94 °FScattered clouds.13 mph30%30.03 "Hg10 mi
4:15 PM94 °FScattered clouds.10 mph30%30.04 "Hg7 mi
3:55 PM93 °FScattered clouds.9 mph31%30.04 "Hg5 mi
3:35 PM94 °FScattered clouds.6 mph31%30.05 "Hg10 mi
3:15 PM92 °FScattered clouds.9 mph33%30.06 "Hg10 mi
2:55 PM93 °FScattered clouds.7 mph33%30.06 "Hg10 mi
2:15 PM90 °FScattered clouds.13 mph39%30.09 "Hg7 mi
1:55 PM91 °FSunny.10 mph39%30.09 "Hg10 mi
1:35 PM90 °FSunny.12 mph41%30.10 "Hg7 mi
1:15 PM89 °FSunny.12 mph43%30.10 "Hg10 mi
12:55 PM88 °FSunny.12 mph47%30.12 "Hg10 mi
12:15 PM86 °FSunny.10 mph53%30.13 "Hg10 mi
11:55 AM85 °FSunny.6 mph54%30.13 "Hg10 mi
11:35 AM84 °FSunny.8 mph55%30.13 "Hg10 mi
11:15 AM83 °FSunny.7 mph58%30.13 "Hg10 mi
10:55 AM81 °FSunny.7 mph63%30.13 "Hg10 mi
10:35 AM80 °FSunny.6 mph66%30.13 "Hg10 mi
10:15 AM79 °FSunny.7 mph68%30.13 "Hg10 mi
Weather by CustomWeather, © 2016

See weather overviewHow to use our weather pages